Location: Newark
(31.0436°N, 112.2008°E)
Time: 07:26:42
(UTC+00:00)

N. Korean satellite - Pass Details

Date: 31 January 2020
Orbit: 456 x 505 km, 97.2° (Epoch: 20 February)

Event Time Altitude Azimuth Distance (km) Brightness Sun altitude
Rises 22:03:14 0° 14° (NNE) 2,568 10.3 -17.5°
Reaches altitude 10° 22:05:18 10° 17° (NNE) 1,691 9.4 -17.1°
Maximum altitude 22:08:56 66° 100° (E) 546 7.0 -16.3°
Drops below altitude 10° 22:12:34 10° 184° (S) 1,700 9.4 -15.5°
Sets 22:14:40 0° 187° (S) 2,584 10.3 -15.1°
